This is the latest recevied weather packets stored in our database for station/object KC9GSD. If no packets are shown the sender has not sent any weather packets the latest 10 day(s).
| Time | Temp. | Humidity | Pressure | Rain* | Wind** | Luminosity | Snow |
|---|---|---|---|---|---|---|---|
| 1778154818 | 15° C | 98% | 1011.9 hPa | 0 mm | - | 32 W/m² | - |
| 1778154514 | 15° C | 98% | 1011.6 hPa | 0 mm | - | 31 W/m² | - |
| 1778154212 | 15° C | 98% | 1011.6 hPa | 0 mm | - | 34 W/m² | - |
| 1778153909 | 15° C | 98% | 1011.6 hPa | 0 mm | - | 25 W/m² | - |
| 1778153606 | 14.44° C | 98% | 1011.8 hPa | 0 mm | - | 15 W/m² | - |
| 1778153304 | 15° C | 98% | 1011.6 hPa | 0 mm | - | 20 W/m² | - |
| 1778153000 | 14.44° C | 98% | 1011.6 hPa | 0 mm | - | 16 W/m² | - |
| 1778152698 | 14.44° C | 98% | 1011.3 hPa | 1.78 mm | - | 12 W/m² | - |
| 1778152394 | 14.44° C | 98% | 1011.2 hPa | 4.83 mm | - | 7 W/m² | - |
| 1778152091 | 14.44° C | 98% | 1011.2 hPa | 7.11 mm | - | 4 W/m² | - |
| 1778151787 | 14.44° C | 98% | 1011.5 hPa | 11.94 mm | - | 2 W/m² | - |
| 1778151484 | 14.44° C | 98% | 1011.1 hPa | 19.81 mm | - | 1 W/m² | - |
| 1778151180 | 15° C | 98% | 1011.4 hPa | 14.99 mm | - | 0 W/m² | - |
| 1778150877 | 15° C | 98% | 1011.9 hPa | 6.1 mm | - | 0 W/m² | - |
| 1778150574 | 14.44° C | 98% | 1011.9 hPa | 3.05 mm | - | 0 W/m² | - |
| 1778150270 | 15° C | 98% | 1011.7 hPa | 1.27 mm | - | 0 W/m² | - |
| 1778149966 | 15° C | 98% | 1011.3 hPa | 0 mm | - | 0 W/m² | - |
| 1778149663 | 14.44° C | 98% | 1011.1 hPa | 0 mm | - | 0 W/m² | - |
| 1778149360 | 14.44° C | 98% | 1010.7 hPa | 1.78 mm | - | 0 W/m² | - |
| 1778149056 | 14.44° C | 98% | 1011 hPa | 1.78 mm | - | 0 W/m² | - |
| 1778148751 | 14.44° C | 98% | 1010.6 hPa | 0 mm | - | 0 W/m² | - |
| 1778148448 | 14.44° C | 98% | 1011.1 hPa | 0 mm | - | 0 W/m² | - |
| 1778148147 | 14.44° C | 98% | 1011.1 hPa | 1.78 mm | - | 0 W/m² | - |
| 1778147844 | 14.44° C | 98% | 1011 hPa | 6.1 mm | - | 0 W/m² | - |
| 1778147540 | 14.44° C | 98% | 1010.8 hPa | 11.94 mm | - | 0 W/m² | - |
* Rain latest hour (hover to see other rain measurements)
** Current wind speed in m/s (hover to see current wind gust speed)